Starlink 33830

operational
NORAD ID: 63587 Int'l Des: 2025-076 Owner: SPXS Country: US Constellation: starlink
LEOCIRCULAR

关于 Starlink 33830

正在加载描述...

实时位置

正在加载3D地球...

即将过境

高度历史

Altitude vs Time

uPlot chart will show altitude changes over time

两行轨道根数

1 63587U 25076U 25306.46852016 .00031864 00000-0 11607-2 0 9996
2 63587 43.0016 320.1625 0001431 267.6478 92.4210 15.27628826 32373
Epoch: Nov 2, 2025 • Age: 15 hours

当前状态

高度 493.6 km
速度 7.62 km/s
星下点 -39.29°S, 118.03°E
发射日期 Apr 14, 2025
运行时间 0.5 years
类型 internet

技术详情

分类 Payload
质量 575.00 kg
干质量 530.00 kg
总质量 575.00 kg
长度 0.30 m
直径 4.10 m
跨度 29.00 m
形状 Box + pan
制造商 SPXS
平台类型 Starlink V2MO
阶段状态 In Orbit
所有者/国家 SPXS/US

大型星座

Loading constellations...